Regional Weather Roundup
Issued by NWS

Home | Current Version | Previous Version | Graphics & Text | Print | Product List | Glossary On
Versions: 1 2 3 4 5 6 7 8 9 10 11 12 13 14 15 16 17 18 19 20 21 22 23 24 25 26 27 28 29 30 31 32 33 34 35 36 37 38 39 40 41 42 43 44 45 46 47 48 49 50
000
ASUS43 KMPX 012110
RWRMN
WEATHER ROUNDUP FOR MINNESOTA
NATIONAL WEATHER SERVICE TWIN CITIES/CHANHASSEN MN
400 PM CDT SAT AUG 01 2015


NOTE: "FAIR" INDICATES FEW OR NO CLOUDS BELOW 12,000 FEET WITH NO
SIGNIFICANT WEATHER AND/OR OBSTRUCTIONS TO VISIBILITY. N/A MEANS
CURRENT SKY AND/OR WEATHER CONDITIONS ARE NOT AVAILABLE.

MNZ060>063-068>070-012200-
   Twin Cities Metro

CITY           SKY/WX    TMP DP  RH WIND       PRES   REMARKS
TWIN CITIES    MOSUNNY   85  56  37 SW8       29.89F
ST PAUL        MOSUNNY   86  57  37 SW8       29.89F
CRYSTAL        MOSUNNY   85  58  39 SW10      29.87F
BLAINE         PTSUNNY   86  55  35 W7        29.89F
LAKEVILLE      MOSUNNY   82  64  54 SW5       29.91F
EDEN PRAIRIE   MOSUNNY   84  62  47 SW12      29.89F
SOUTH ST PAUL  MOSUNNY   84  56  37 SW5       29.89F
LAKE ELMO      FAIR      82  55  39 W3        29.90F
$$
MNZ001>005-007-008-013>017-022>024-027-028-012200-
   Northwest Minnesota

CITY           SKY/WX    TMP DP  RH WIND       PRES   REMARKS
BEMIDJI        SUNNY     81  54  39 SW8       29.84F
HALLOCK        SUNNY     82  52  34 SW7       29.77F
ROSEAU         SUNNY     81  59  47 W10       29.79F
WARROAD        SUNNY     81  57  44 W10G18    29.79F
THIEF RVR FALL SUNNY     81  55  41 S7        29.81F
CROOKSTON      SUNNY     82  57  42 S10       29.81F
FOSSTON        MOSUNNY   82  55  39 SW3       29.84F
DETROIT LAKES  MOSUNNY   81  54  39 S9        29.86F
MOORHEAD       SUNNY     84  57  39 S12       29.81F
PARK RAPIDS    MOSUNNY   81  55  40 SW8       29.85F
MAHNOMEN       FAIR      80  58  45 SW7       29.83F
$$
MNZ006-009>011-018-025>026-012200-
   North Central Minnesota

CITY           SKY/WX    TMP DP  RH WIND       PRES   REMARKS
BAUDETTE       SUNNY     80  51  36 SW14G21   29.78F
FLAG ISLAND    MOSUNNY   79  48  34 W13G23    29.74F
INTL FALLS     SUNNY     80  51  36 W10       29.77F
WASKISH        SUNNY     81  57  44 SW9       29.81F
BIG FORK       SUNNY     81  54  39 SW13      29.83F
LONGVILLE      PTSUNNY   81  54  39 SW8       29.85F
GRAND RAPIDS   SUNNY     81  50  34 W12       29.85F
CRANE LAKE     MOSUNNY   77  46  33 W8        29.80F
ORR            SUNNY     81  43  26 W12G17    29.79F
COOK           SUNNY     79  46  31 W13       29.82F
WALKER         MOCLDY    80  52  38 SW8       29.84F
$$
MNZ012-019>021-037-012200-
   Northeast Minnesota

CITY           SKY/WX    TMP DP  RH WIND       PRES   REMARKS
DULUTH         SUNNY     81  51  35 W18G24    29.85F
ELY            MOSUNNY   77  45  31 SW15G23   29.80F
HIBBING        SUNNY     80  49  33 W9G17     29.84F
EVELETH        SUNNY     81  46  30 SW9       29.85F
DULUTH HARBOR  MOSUNNY   82  52  34 SW13G20   29.82F
TWO HARBORS    MOSUNNY   82  57  42 W8G16     29.81F
SILVER BAY     SUNNY     82  46  28 SW3       29.80F
GRAND MARAIS     N/A     56  47  71 W12       29.77F
G MARAIS ARPRT SUNNY     73  43  33 W6G17     29.82F
$$
MNZ029>031-032-039>041-046>048-054>057-064-012200-
   West Central Minnesota

CITY           SKY/WX    TMP DP  RH WIND       PRES   REMARKS
FERGUS FALLS   MOSUNNY   82  63  51 S13       29.82F
WHEATON        SUNNY     81  68  65 SE14      29.82F
MORRIS         SUNNY     84  68  58 SE12G18   29.83F
ALEXANDRIA     MOSUNNY   83  59  44 S10       29.88F
ELBOW LAKE     FAIR      82  65  55 SE16      29.84F
WADENA         PTSUNNY   82  54  36 S10       29.86S
GLENWOOD       MOSUNNY   81  64  57 SE10      29.88F
APPLETON       SUNNY     88  70  55 S12       29.82F HX  92
BENSON         MOSUNNY   84  66  54 S12G17    29.83F
ORTONVILLE     SUNNY     88  63  42 SW7G20    29.82F
MADISON        SUNNY     88  63  42 SW14G21   29.83F
WILLMAR        FAIR      84  68  58 S8        29.87F
$$
MNZ033>034-036-042>043-049>051-058-059-012200-
   Central Minnesota

CITY           SKY/WX    TMP DP  RH WIND       PRES   REMARKS
ST CLOUD       MOSUNNY   83  58  42 S8        29.87F
SAUK CENTRE    FAIR      82  64  54 S9        29.88F
PAYNESVILLE    MOSUNNY   80  63  55 SE9       29.89F
AITKIN         SUNNY     82  55  39 SW7G16    29.85F
PINE RIVER     MOSUNNY   81  55  41 SW7       29.88F
BRAINERD       PTSUNNY   82  52  35 SW8       29.86F
STAPLES        MOSUNNY   81  54  39 S9        29.86F
LONG PRAIRIE   FAIR      81  59  47 S7        29.88F
LITTLE FALLS   PTSUNNY   79  54  41 S5        29.87F
LITCHFIELD     MOSUNNY   82  66  57 S5        29.88F
BUFFALO          N/A     82  60  46 S7        29.89F
MAPLE LAKE     MOSUNNY   82  66  57 S3        29.89F
$$
MNZ037-044-045-052-053-012200-
   East Central Minnesota

CITY           SKY/WX    TMP DP  RH WIND       PRES   REMARKS
PRINCETON      MOSUNNY   84  55  37 SW7       29.88F
MORA           SUNNY     79  54  41 SW7       29.89F
CAMBRIDGE      MOSUNNY   84  61  45 SW7       29.87F
RUSH CITY      PTSUNNY   80  56  43 W6        29.88F
MOOSE LAKE     PTSUNNY   81  52  36 W8        29.84F
HINCKLEY       MOCLDY    79  59  50 SW7       29.88F
CLOQUET        SUNNY     81  46  30 W15       29.86S
MCGREGOR       MOSUNNY   79  52  38 W8        29.87S
$$
MNZ071>073-080-081-089-090-097-098-012200-
   Southwest Minnesota

CITY           SKY/WX    TMP DP  RH WIND       PRES   REMARKS
MONTEVIDEO     MOSUNNY   90  72  55 W12G17    29.85F HX  96
GRANITE FALLS  MOSUNNY   86  64  48 S12       29.86F
CANBY          MOSUNNY   85  62  45 SW14G20   29.86F
MARSHALL       MOSUNNY   84  63  48 SW17G23   29.88F
REDWOOD FALLS  MOSUNNY   87  66  49 S9        29.86F
OLIVIA         MOSUNNY   81  68  65 S9        29.86F
PIPESTONE      MOSUNNY   82  64  54 W8G16     29.94F
WINDOM         MOSUNNY   86  64  48 SW9       29.93F
WORTHINGTON    PTSUNNY   82  63  51 SW12G17   29.95S
JACKSON        PTSUNNY   86  63  45 W14       29.95F
TRACY          MOSUNNY   84  66  54 SW10      29.90F
SLAYTON        PTSUNNY   83  62  48 SW13G18   29.94F
$$
MNZ065>067-074>077-082>085-091>093-012200-
   South Central Minnesota

CITY           SKY/WX    TMP DP  RH WIND       PRES   REMARKS
MANKATO        MOSUNNY   82  68  61 SW8       29.91F
NEW ULM        SUNNY     88  63  42 SW9       29.89F
ST JAMES       MOSUNNY   90  64  43 SW12      29.92F HX  91
FAIRMONT       PTSUNNY   86  61  42 SW8       29.93F
GLENCOE        MOSUNNY   84  68  58 S7        29.90F
FARIBAULT      MOSUNNY   82  68  61 S5        29.93F
OWATONNA       SUNNY     82  66  57 SW9       29.93F
WASECA         MOSUNNY   82  66  57 SW7       29.94F
ALBERT LEA     MOSUNNY   82  68  61 W5        29.94F
$$
MNZ078>079-086>088-094>096-012200-
   Southeast Minnesota

CITY           SKY/WX    TMP DP  RH WIND       PRES   REMARKS
ROCHESTER      SUNNY     81  66  60 W8        29.95F
RED WING       MOSUNNY   86  54  32 NW5       29.89F
STANTON        MOSUNNY   84  63  49 SW6       29.90F
DODGE CENTER   SUNNY     82  66  57 W7        29.95S
WINONA         SUNNY     82  59  44 W6        29.91F
AUSTIN         SUNNY     84  64  51 W8        29.95S
PRESTON        SUNNY     82  64  54 W9        29.96S
$$
ABBREVIATIONS USED IN REMARKS
   TC - TEMPERATURES IN CELSIUS
  WCI - WIND CHILL INDEX
   HX - HEAT INDEX
  VSB - VISIBILITY
$$



USA.gov is the U.S. government's official web portal to all federal, state and local government web resources and services.